This demonstration page uses our WeatherBlox Daily Observations layout. Learn more.

Left ArrowRight Arrow

39.12711, -84.51439

Hourly Observations for July 30, 2017

Temp ( °F °C ) Dew Point ( °F °C ) Humidity (%) Winds ( mph kmh ) Pressure ( in mb ) Visibility ( mi km ) Precip ( " mm )
12:53 am 00:53 Clear 62 16.7 58 14.4 86 86 N N/A 30.06 1018 10 16 N/A
1:53 am 01:53 Clear 59 15 58 14.4 96 96 N N/A 30.07 1018 10 16 N/A
2:53 am 02:53 Clear 59 15 58 14.4 96 96 N N/A 30.08 1019 10 16 N/A
3:53 am 03:53 Clear 57 13.9 57 13.9 100 100 NE 3 6 30.09 1019 10 16 N/A
4:53 am 04:53 Clear 58 14.4 58 14.4 100 100 NE 3 6 30.11 1020 10 16 N/A
5:53 am 05:53 Clear 56 13.3 56 13.3 100 100 NE 3 6 30.12 1020 10 16 N/A
6:53 am 06:53 Sunny 56 13.3 56 13.3 100 100 ENE 3 6 30.13 1020 9 14 N/A
7:53 am 07:53 Sunny 61 16.1 59 15 93 93 N N/A 30.14 1021 10 16 N/A
8:53 am 08:53 Sunny 67 19.4 61 16.1 81 81 NE 5 7 30.15 1021 10 16 N/A
9:53 am 09:53 Sunny 72 22.2 63 17.2 73 73 NE 3 6 30.16 1021 10 16 N/A
10:53 am 10:53 Sunny 75 23.9 62 16.7 64 64 ENE 3 6 30.16 1021 10 16 N/A
11:53 am 11:53 Sunny 79 26.1 61 16.1 54 54 VRB 3 6 30.16 1021 10 16 N/A
12:53 pm 12:53 Sunny 81 27.2 62 16.7 53 53 NNE 7 11 30.16 1021 10 16 N/A
1:53 pm 13:53 Mostly Sunny 82 27.8 62 16.7 51 51 E 8 13 30.15 1021 10 16 N/A
2:53 pm 14:53 Mostly Cloudy 82 27.8 63 17.2 53 53 VRB 7 11 30.14 1021 10 16 N/A
3:53 pm 15:53 Mostly Cloudy 83 28.3 61 16.1 48 48 ENE 5 7 30.13 1020 10 16 N/A
4:53 pm 16:53 Mostly Sunny 84 28.9 63 17.2 49 49 VRB 5 7 30.12 1020 10 16 N/A
5:53 pm 17:53 Sunny 84 28.9 63 17.2 49 49 NE 7 11 30.11 1020 10 16 N/A
6:53 pm 18:53 Partly Cloudy 83 28.3 64 17.8 53 53 NE 6 9 30.11 1020 10 16 N/A
7:53 pm 19:53 Mostly Sunny 81 27.2 64 17.8 57 57 ENE 5 7 30.13 1020 10 16 N/A
8:53 pm 20:53 Clear 73 22.8 67 19.4 81 81 N N/A 30.13 1020 10 16 N/A
9:53 pm 21:53 Clear 69 20.6 66 18.9 90 90 N N/A 30.13 1020 10 16 N/A
10:53 pm 22:53 Clear 68 20 66 18.9 93 93 N N/A 30.14 1021 10 16 N/A
11:53 pm 23:53 Clear 68 20 66 18.9 93 93 N N/A 30.14 1021 10 16 N/A

Powered by AerisWeather